Elk City, OK (73644)

7:14 PM CST on December 10, 2016 (GMT -0600)
Clinton-Sherman | | Change Station

Elev 1923 ft 35.34 °N, 99.20 °W | Updated 21 minutes ago

Clear
Clear
43 °F
Feels Like 34 °F
N
22
Wind Variable Wind from South

Today
High -- | Low -- °F
--% Chance of Precip.
Yesterday
High -- | Low -- °F
Precip. -- in
Pressure 29.96 in
Visibility 10.0 miles
Clouds Clear
Windchill 34 °F
Dew Point 34 °F
Humidity 71%
Rainfall 0.00 in
Snow Depth Not available.
7:36 AM 5:25 PM
Waxing Gibbous, 87% visible
METAR KCSM 110053Z AUTO 17019KT 10SM CLR 06/01 A2993 RMK AO2 SLP144 T00610011
Pressure 29.96 in
Visibility 10.0 miles
Clouds Clear
Windchill 34 °F
Dew Point 34 °F
Humidity 71%
Rainfall 0.00 in
Snow Depth Not available.
7:36 AM 5:25 PM
Waxing Gibbous, 87% visible
METAR KCSM 110053Z AUTO 17019KT 10SM CLR 06/01 A2993 RMK AO2 SLP144 T00610011

10-Day Weather Forecast

Almanac

Astronomy

Dec. 10, 2016 Rise Set
Actual Time
Civil Twilight
Nautical Twilight
Astronomical Twilight
Moon
Length of Visible Light
Length of Day
Tomorrow will be .
, % of the Moon is Illuminated

Today's Extremes

State Highs State Lows

Community

WunderPhotos

Upload Photos

1,956,685 photos uploaded!

WunderBlog® & News

Nearby

Air Quality

  Air Quality AQ Index Pollutant
Not available.

Snow Depth

Station Depth Elevation

Earthquake Activity

City Distance Mag. Time & Date
Minimum magnitude displayed is 2.5.

Coastal Water Temperatures

Place Temperature

Stations

Nearby Weather Stations

Station Location Temp. Windchill Dew Point Humidity Wind Precip. Elev Updated Type
                   

Watches & Warnings

There are currently no watches in effect.